ED2YAA-3 Weather Reports


time (UTC)temp
C
wind
direction
speed
KPH
gust
KPH
rain 1hr
cm
rain 24hr
cm
rain mn
cm
humidity
%
barometer
mb
20260510174942 18 45 0.0 0.0 0.00 0.00 0.00 59 988.0
20260510173530 18 96 0.0 0.0 0.00 0.00 0.00 62 988.0
20260510164942 18 68 0.0 0.0 0.00 0.00 0.00 67 987.9
20260510163530 18 68 0.0 0.0 0.00 0.00 0.00 65 987.6
20260510154943 19 338 0.0 0.0 0.00 0.00 0.00 63 987.3
20260510153530 18 338 0.0 0.0 0.00 0.00 0.00 64 987.2
20260510144942 18 338 0.0 0.0 0.00 0.00 0.00 64 988.0
20260510143528 18 338 0.0 0.0 0.00 0.00 0.00 62 988.3
20260510134943 17 158 0.0 0.0 0.00 0.00 0.00 64 989.4
20260510133530 17 158 0.0 0.0 0.00 0.00 0.00 67 989.5
20260510124943 16 152 0.0 0.0 0.00 0.00 0.00 62 990.6
20260510123528 17 0 0.0 0.0 0.00 0.00 0.00 56 990.3
20260510114942 23 180 0.0 0.0 0.00 0.00 0.00 43 988.0
20260510113528 23 180 0.0 0.0 0.00 0.00 0.00 41 988.0
20260510104943 23 90 0.0 0.0 0.00 0.00 0.00 40 988.2
20260510103528 23 126 0.0 0.0 0.00 0.00 0.00 40 988.4
20260510094941 31 101 0.0 0.0 0.00 0.00 0.00 32 988.7
20260510093528 30 112 0.0 0.0 0.00 0.00 0.00 33 988.9
20260510084942 28 112 0.0 0.0 0.00 0.00 0.00 38 989.4
20260510083528 27 131 0.0 0.0 0.00 0.00 0.00 40 989.3
20260510074941 23 158 0.0 0.0 0.00 0.00 0.00 51 989.2
20260510073528 21 94 0.0 0.0 0.00 0.00 0.00 54 989.2
20260510070309 23 45 0.0 0.0 0.00 0.00 0.00 56 989.0
20260510063528 22 45 0.0 0.0 0.00 0.00 0.00 60 988.6
20260510060309 19 45 0.0 0.0 0.00 0.00 0.00 73 988.3
20260510053528 12 68 0.0 0.0 0.00 0.00 0.00 85 988.2
20260510050308 12 68 0.0 0.0 0.00 0.00 0.00 86 987.8
20260510043527 12 68 0.0 0.0 0.00 0.00 0.00 86 987.7
20260510040308 12 68 0.0 0.0 0.00 0.00 0.00 87 987.7
20260510033527 12 68 0.0 0.0 0.00 0.00 0.00 87 987.6
20260510030309 12 0 0.0 0.0 0.00 0.00 0.00 87 987.3
20260510023527 13 0 0.0 0.0 0.00 0.00 0.00 87 987.8
20260510020308 13 0 0.0 0.0 0.00 0.00 0.00 87 987.5
20260510013526 13 0 0.0 0.0 0.00 0.00 0.00 87 987.6
20260510010309 13 0 0.0 0.0 0.00 0.00 0.00 86 988.1
20260510003527 13 0 0.0 0.0 0.00 0.00 0.00 85 988.0
20260510000307 13 0 0.0 0.0 0.00 0.00 0.00 86 988.1
20260509233528 13 0 0.0 0.0 0.00 0.00 0.00 86 988.4
20260509230308 13 0 0.0 0.0 0.00 0.00 0.00 86 988.2
20260509224923 13 0 0.0 0.0 0.00 0.00 0.00 86 988.2
20260509223528 13 0 0.0 0.0 0.00 0.00 0.00 85 988.3
20260509214924 15 0 0.0 0.0 0.00 0.00 0.00 84 987.8
20260509213527 15 0 0.0 0.0 0.00 0.00 0.00 84 987.8
20260509204924 15 0 0.0 0.0 0.00 0.00 0.00 83 987.8
20260509203526 15 0 0.0 0.0 0.00 0.00 0.00 83 987.6
20260509194923 15 315 0.0 0.0 0.00 0.00 0.00 81 987.1
20260509193528 15 270 0.0 0.0 0.00 0.00 0.00 80 987.1
20260509184924 16 315 0.0 0.0 0.00 0.00 0.00 76 987.1
20260509183526 16 315 0.0 0.0 0.00 0.00 0.00 75 987.1